Hourly Weather Roundup

ASUS45 KTFX 220210

RWRMT 

Montana Regional Weather Roundup

National Weather Service Great Falls MT

800 PM MDT SUN APR 21 2024



NOTE: "FAIR" indicates few or no clouds below 12,000 feet with no

significant weather and/or obstructions to visibility.



MTZ001.007-043-220300-

West of the divide

  

CITY           SKY/WX    TMP DP  RH WIND       PRES   REMARKS

Kalispell      MOCLDY    47  21  35 SW13G22   30.05S                  

Missoula       CLOUDY    48  18  30 W16       30.11S                  

Butte          CLEAR     46  13  26 NW18G36   30.00R                  

Anaconda         N/A     46  12  25 W12G18    30.03                   

Deer Lodge       N/A     45  23  42 NW22G32   30.06                   

Hamilton       CLEAR     48  16  27 NW15G22   30.10S                  

Mullan Pass    PTCLDY    28  21  75 VRB6      30.10F WCI  22          

Plains         PTCLDY    50  23  34 W9G15     30.13F                  

Thompson Falls   N/A     48  27  43 CALM      30.17F                  

--------------------------------



MTZ008-052.055-220300-

Southwest Montana

  

CITY           SKY/WX    TMP DP  RH WIND       PRES   REMARKS

Bozeman        MOCLDY    51  29  42 N8        29.92R                  

Dillon         CLEAR     53  26  35 W16       29.92R                  

Ennis          PTCLDY    50  30  46 NW12      29.96R                  

Three Forks      N/A     55  21  26 N9        29.92R                  

Twin Bridges   FAIR      54  23  30 NW21G31   29.93R                  

--------------------------------



MTZ009-010-012-014-046-048-049-054-220300-

East Slopes and Central Montana

  

CITY           SKY/WX    TMP DP  RH WIND       PRES   REMARKS

Cut Bank       CLEAR     44  16  32 W28G38    29.91R                  

Great Falls    CLEAR     50  12  21 W20       29.91R                  

Helena         CLEAR     51  13  21 NW16      29.97R                  

Malmstrom AFB  CLEAR     53   8  16 W20       29.91R                  

Augusta        CLEAR     45   7  21 W25       29.93S                  

Bowmans Corner CLEAR     44  13  28 W23       29.90R                  

Choteau          N/A     46   7  19 NW20G30   29.92                   

Fairfield      CLEAR     48  11  22 W16       29.89S                  

Power          CLEAR     47   8  20 W13       29.89R                  

Raynesford     PTCLDY    50  10  19 W16G29    29.89R                  

Ulm            CLEAR     50  12  22 W25       29.91R                  

--------------------------------



MTZ011-013-016-021-045-047-050-051-220300-

North Central Montana

  

CITY           SKY/WX    TMP DP  RH WIND       PRES   REMARKS

Havre          CLEAR     54  12  18 W31G44    29.82S                  

Lewistown      MOCLDY    50  19  29 NW10G21   29.88R                  

Denton         PTCLDY    52  12  20 NW15      29.86R                  

Fort Benton    CLEAR     53   9  17 NW18      29.87R                  

Grass Range    MOCLDY    51  19  28 N8        29.81S                  

N Bar Ranch    MOCLDY    50  14  23 W18G26    29.87S                  

Roy            MOCLDY    50  15  24 NW15      29.81F                  

Stanford       MOCLDY    50   6  16 NW22      29.87S                  

Winifred       MOCLDY    52   7  16 NW18G25   29.84S                  

--------------------------------



MTZ017.020-022.027-061-062-220300-

Northeast Montana

  

CITY           SKY/WX    TMP DP  RH WIND       PRES   REMARKS

Glasgow        CLOUDY    60  14  16 NW21G31   29.76R                  

Circle           N/A     61  28  29 NW13G21   29.74                   

Culbertson     CLEAR     61  28  29 NW14      29.69S                  

Glendive       MOCLDY    63  26  24 S3        29.72F                  

Jordan           N/A     59  32  36 NW10      29.79R                  

Malta          CLEAR     57  10  15 W16G26    29.78R                  

Plentywood     CLOUDY    59  25  27 W9        29.70F                  

Poplar         CLOUDY    63  30  29 W13       29.72SSidney         CLOUDY    58  29  33 W8        29.71F                  

Wolf Point     CLOUDY    63  29  27 W12       29.73S                  

--------------------------------



MTZ028.42-056.058-220300-

Southcentral and southeast Montana

  

CITY           SKY/WX    TMP DP  RH WIND       PRES   REMARKS

Baker          CLOUDY    58  20  22 S6        29.76F                  

Big Timber     CLEAR     55  32  41 W14G20    29.86S                  

Billings       CLOUDY    61  30  31 NW12      29.82R                  

Forsyth          N/A     64  30  27 W14G22    29.79                   

Hardin         MOCLDY    61  34  36 NW6       29.78F                  

Harlowton      CLOUDY    53  24  33 SW12      29.86R                  

Laurel           N/A     61  34  36 NW9       29.83                   

Livingston     CLOUDY    54  30  40 N15       29.88R                  

Miles City     CLOUDY    62  34  35 NW17G24   29.75R                  

Roundup          N/A     55  19  24 NW13      29.77S                  

--------------------------------



Regional Reports...Dakotas/MN

  

CITY           SKY/WX    TMP DP  RH WIND       PRES   REMARKS

Williston      MOCLDY    57  24  28 SW6       29.71F                  

Minot          MOCLDY    56  20  24 SE12      29.75F                  

Dickinson      CLOUDY    53  27  36 S8        29.75F                  

Beach          FAIR      55  23  28 SW5       29.76F                  

Bowman         FAIR      55  27  33 S9        29.79F                  

Crosby         MOCLDY    55  21  26 S12       29.67F                  

Glen Ullin     FAIR      50  25  37 S9        29.78F                  

Hettinger      CLOUDY    57  26  30 SE9       29.80F                  

Tioga          FAIR      52  25  35 S12       29.72F                  

Watford City   FAIR      57  25  28 S8        29.72F                  

Bismarck       MOCLDY    52  25  35 SE10      29.83F                  

Grand Forks    PTCLDY    45  21  38 S7        29.88F                  

Fargo          PTCLDY    51  22  31 S10       29.92F                  

Buffalo SD       N/A     58  29  33 SW7       29.76F                  

Rapid City     MOCLDY    57  30  35 S10       29.83F                  

Intl Falls     CLEAR     47  22  37 SW3       29.90F                  

Duluth         CLEAR     50  19  29 W5        29.97S                  

Minneapolis    CLEAR     57  16  20 W3        30.03F                  

--------------------------------



Regional Reports...WY/CO/ID/WA/OR

  

CITY           SKY/WX    TMP DP  RH WIND       PRES   REMARKS

Buffalo WY     CLOUDY    56  28  34 S12       29.83F                  

Cody           PTCLDY    56  31  38 CALM      29.85F                  

Gillette       CLOUDY    58  26  29 SW13      29.83F                  

Powell         MOCLDY    57  27  30 NW20      29.86R                  

Sheridan       CLOUDY    54  38  54 SW8       29.79F                  

Boise          PTCLDY    58  18  21 N18       30.09F                  

Couer d'Alene  CLOUDY    51  26  37 SW8       30.13F                  

Idaho Falls    MOCLDY    62  30  29 SW24G35   29.95F                  

Salmon         CLEAR     54  28  36 N16G23    29.99R                  

Spokane        MOCLDY    54  21  27 W20G26    30.13F                  

Seattle        PTSUNNY   54  38  54 NW6       30.32F                  

Portland       MOSUNNY   61  38  42 NW7       30.30F                  

--------------------------------



Other Reports

  

CITY           SKY/WX    TMP DP  RH WIND       PRES   REMARKS

Atlanta        PTCLDY    52  40  63 NW8       30.04R                  

Anchorage      CLOUDY    43  35  73 SE17G28   29.84S                  

Boston         MOCLDY    47  24  40 W9        29.90R                  

Chicago        CLEAR     52  26  36 SW5       30.10R                  

Fairbanks      MOSUNNY   57  22  25 SW7       29.73R                  

Houston        PTCLDY    64  48  56 N6        30.20R                  

Las Vegas NV   PTCLDY    88  2610 E6        29.85F                  

Phoenix AZ     PTCLDY    95  18   6 S6        29.78S                  

Salt Lake City MOCLDY    70  34  26 N7        29.93F                  

San Diego      CLOUDY    62  55  77 CALM      29.95S                  

San Francisco  PTCLDY    61  51  70 NW20      29.91F                  

Washington Dul CLEAR     49  28  44 NW8       30.02R                  

--------------------------------



Regional Reports...Alberta

  

CITY           SKY/WX    TMP DP  RH WIND       PRES   REMARKS

Calgary        CLOUDY    48  14  25 W21G29    29.78S                  

Cardston         N/A     45  18  33 W23G32      N/A                   

Crowsnest Pass   N/A     43  16  33 W12G20      N/A                   

Del Bonita       N/A     39  23  52 W30         N/A  WCI  27          

Fort McMurray  CLEAR     59  18  20 NE5       29.55S                  

High Level     CLEAR     64  12  13 NW6       29.59S                  

Lethbridge     PTCLDY    48  18  29 W32G44    29.82S                  

Medicine Hat   MOCLDY    54  25  32 NW10G17   29.75S                  

Milk River       N/A     45  19  36 W30G37      N/A                   

Pincher Creek  CLEAR     43  18  36 W30G43    29.88S                  

Raymond          N/A     48  14  25 W35         N/A                   

Waterton Gate    N/A     41  18  38 W23G33      N/A                   

Fort Smith NWT PTCLDY    61  16  17 NE5       29.61R                  

--------------------------------



Regional Reports...Saskatchewan

  

CITY           SKY/WX    TMP DP  RH WIND       PRES   REMARKS

Assiniboia       N/A     55  16  21 W18G28      N/A                   

Coronach         N/A     55  12  18 W14         N/A                   

Cypress Hills    N/A     43  25  49 W10G17      N/A                   

Estevan        MOCLDY    52  27  37 SE10      29.66F                  

Moose Jaw        N/A     55  18  22 W14         N/A                   

Prince Albert  PTCLDY    52  32  46 E12       29.53F                  

Regina         MOCLDY    55  27  33 SW20      29.65F                  

Rockglen         N/A     52  14  22 W12         N/A                   

Saskatoon      PTCLDY    52  30  43 W15G21    29.53R                  

Swift Current  PTCLDY    50  30  46 W13G20    29.67S                  

Uranium City     N/A     54  18  24 S1          N/A                   

Val Marie        N/A     54